Regional Weather Roundup
Issued by NWS

Home | Current Version | Previous Version | Graphics & Text | Print | Product List | Glossary On
Versions: 1 2 3 4 5 6 7 8 9 10 11 12 13 14 15 16 17 18 19 20 21 22 23 24 25 26 27 28 29 30 31 32 33 34 35 36 37 38 39 40 41 42 43 44 45 46 47 48 49 50
000
ASUS43 KOAX 202010
RWRNE

WEATHER ROUNDUP FOR NEBRASKA
NATIONAL WEATHER SERVICE OMAHA NE
300 PM CDT SAT SEP 20 2014

NOTES: SATELLITE DATA IS BEING USED TO AUGMENT CLOUD COVER ABOVE
       12000 FEET.
       "FAIR" INDICATES FEW OR NO CLOUDS BELOW 12,000 FEET WITH NO
       SIGNIFICANT WEATHER AND/OR OBSTRUCTIONS TO VISIBILITY.

  * THESE STATIONS DO NOT REPORT WEATHER SUCH AS RAIN...SNOW OR FOG.

NEZ001>004-019>022-054>056-202100-
NEBRASKA PANHANDLE

CITY           SKY/WX    TMP DP  RH WIND       PRES   REMARKS
SCOTTSBLUFF    SUNNY     84  46  26 N10       30.17F
ALLIANCE       SUNNY     81  45  28 NW14G21   30.15F
CHADRON        SUNNY     82  44  26 NW20G26   30.14F
KIMBALL        SUNNY     80  46  30 N8        30.21S
SIDNEY         SUNNY     82  46  28 N10       30.20F
$$

NEZ057>060-069>072-079>082-202100-
SOUTHWEST NEBRASKA

CITY           SKY/WX    TMP DP  RH WIND       PRES   REMARKS
NORTH PLATTE   SUNNY     84  51  31 N12       30.08F
IMPERIAL       SUNNY     84  47  27 NW6       30.12F
LEXINGTON      SUNNY     85  50  30 NE5       30.05S
MCCOOK         SUNNY     86  50  28 N13       30.07S
OGALLALA       SUNNY     84  50  30 NW6       30.13S
$$

NEZ005>010-023>029-035>040-094-202100-
NORTH CENTRAL NEBRASKA

CITY           SKY/WX    TMP DP  RH WIND       PRES   REMARKS
VALENTINE      MOSUNNY   82  47  29 NW22G30   30.06S
AINSWORTH      MOSUNNY   81  47  30 NW16G22   30.04F
BROKEN BOW     SUNNY     87  48  25 NW14G23   30.04F
O`NEILL        SUNNY     83  53  35 W15G21    30.00S
ORD            SUNNY     83  51  33 NW12      30.00F
THEDFORD       SUNNY     84  49  29 NW15G25   30.08F
$$

NEZ041-046>049-061>064-073>077-083>087-202100-
SOUTH CENTRAL NEBRASKA

CITY           SKY/WX    TMP DP  RH WIND       PRES   REMARKS
GRAND ISLAND   SUNNY     86  51  29 CALM      30.00F
AURORA         SUNNY     83  50  30 N3        29.99F
HASTINGS       SUNNY     85  51  31 N7        30.01S
HEBRON         MOSUNNY   86  52  30 E6        29.97S
HOLDREGE       SUNNY     82  48  30 CALM      30.04S
KEARNEY *      SUNNY     82  54  36 N3        30.04S
YORK           SUNNY     82  59  44 N7        29.98F
$$

NEZ011>018-030>034-042>045-202100-
NORTHEAST NEBRASKA

CITY           SKY/WX    TMP DP  RH WIND       PRES   REMARKS
NORFOLK        SUNNY     83  54  36 NW14      29.96S
ALBION         SUNNY     83  49  30 NW12G18   29.99S
BLAIR          SUNNY     84  58  41 W6        29.93F
COLUMBUS *     SUNNY     84  55  37 NW13      29.97F
FREMONT        SUNNY     85  55  35 W8        29.94S
TEKAMAH        SUNNY     85  58  39 NW9       29.92S
WAYNE          SUNNY     83  55  38 NW13      29.95S
$$

NEZ050>053-065>068-078-088>093-202100-
SOUTHEAST NEBRASKA

CITY           SKY/WX    TMP DP  RH WIND       PRES   REMARKS
LINCOLN        SUNNY     87  59  38 N8        29.95F
OMAHA EPPLEY   MOSUNNY   85  60  42 NW9       29.91F
BEATRICE       SUNNY     84  62  46 S5        29.95F
FALLS CITY     PTSUNNY   78  69  73 W12       29.93F
NEBRASKA CITY    N/A     82  59  45 W10       29.93F
PLATTSMOUTH    SUNNY     83  62  47 W10       29.93S
$$

NEZ044-045-051>053-067-202100-
OMAHA AREA

CITY           SKY/WX    TMP DP  RH WIND       PRES   REMARKS
OMAHA EPPLEY   MOSUNNY   85  60  42 NW9       29.91F
BLAIR          SUNNY     84  58  41 W6        29.93F
FREMONT        SUNNY     85  55  35 W8        29.94S
MILLARD        SUNNY     84  61  45 NW12      29.91F
OFFUTT AFB     SUNNY     85  67  54 W9        29.91F
PLATTSMOUTH    SUNNY     83  62  47 W10       29.93S
WAHOO          FAIR      84  55  35 W9        29.94F
$$



USA.gov is the U.S. government's official web portal to all federal, state and local government web resources and services.